Location: App?r?opet
(16.7219°N, 81.0466°E)
Time: 21:36:11
(UTC+00:00)

Daily predictions for brighter satellites

Satellite Brightness Start Highest point End
(mag) Time Altitude Azimuth Time Altitude Azimuth Time Altitude Azimuth
Cosmos 1703 3.2 12:42:43 10° S 12:46:09 50° E 12:49:33 10° NNE
EO 1 Delta rocket 4.1 12:46:07 10° N 12:50:47 86° W 12:56:07 10° S
Lacrosse 5 1.8 12:51:41 10° NNW 12:56:47 74° ENE 13:01:51 10° SE
Milstar 3 Cent rocket 4.0 12:51:05 10° SSW 12:57:46 26° SSE 13:02:13 10° ESE
Cosmos 2026 Rocket 4.2 12:53:37 10° SSE 12:59:43 51° E 13:05:51 10° NNE
Cosmos 1437 Rocket 3.3 12:56:25 10° SSE 12:59:50 33° E 13:03:11 10° NNE
IGS 5A 4.4 12:56:48 10° S 13:00:42 50° W 13:04:36 10° NNW
ARIANE 5 R/B 4.0 12:56:57 10° SW 13:01:34 15° SSW 13:03:59 10° SSE
ATLAS CENTAUR R/B 4.3 13:00:25 10° WNW 13:03:28 21° WSW 13:06:28 10° SSW
Cosmos 1867 3.7 13:01:15 10° S 13:06:30 54° ESE 13:11:47 10° NE
Cosmos 990 Rocket 4.1 13:01:43 10° NNW 13:06:56 80° WSW 13:12:08 10° S
Cosmos 1953 2.9 13:03:53 10° NNW 13:07:30 56° W 13:11:08 10° S
Aureole 3 2.4 13:04:44 10° S 13:07:45 69° E 13:10:39 10° N
Atlas Centaur 2 1.6 13:10:30 10° W 13:13:58 49° NNW 13:16:40 18° NE
Meteor 1-31 Rocket 2.4 13:17:16 10° SSE 13:20:47 70° E 13:24:19 10° N
GPS 2-17 Rocket1 3.3 13:17:08 10° W 13:21:34 64° SSW 13:25:19 15° ESE
Cosmos 1908 Rocket 3.7 13:21:01 10° N 13:25:08 46° E 13:29:15 10° SSE
Cosmos 1937 Rocket 4.0 13:23:10 10° N 13:27:53 36° ENE 13:32:37 10° SE
NOAA 6 3.9 13:25:19 10° SSE 13:30:24 82° ENE 13:35:30 10° N
YAOGAN 3 4.5 13:27:19 10° SSE 13:31:28 56° ENE 13:35:37 10° N
CZ-2C R/B 2.6 13:28:36 10° SSE 13:31:46 45° ENE 13:33:33 22° NNE
CENTAUR R/B 3.6 13:29:39 10° SE 13:31:37 15° ESE 13:31:37 15° ESE
Cosmos 1943 Rocket 2.1 13:26:52 10° NNW 13:32:29 82° ENE 13:38:01 10° SSE
DELTA 2 R/B (1) 4.3 13:32:15 10° SSW 13:37:19 37° SE 13:39:17 28° E
Meteor 1-24 Rocket 3.8 13:36:17 10° S 13:42:01 86° W 13:47:57 10° N
Cosmos 1825 3.9 13:40:04 10° SW 13:42:36 25° W 13:45:08 10° NNW
SL-08 R/B 3.2 13:39:27 11° NNE 13:44:05 83° ESE 13:48:51 10° S
Cosmos 2278 Rocket 3.1 13:40:22 10° NNW 13:45:48 50° WSW 13:51:14 10° S
BREEZE-M DEB (TANK) 4.1 13:43:11 10° WNW 13:45:54 23° WSW 13:47:49 10° S
YAOGAN 1 3.1 13:45:26 10° S 13:49:37 57° W 13:53:48 10° NNW
SPOT 1/Viking Rocket 3.4 13:44:46 10° SSE 13:49:55 71° ENE 13:55:03 10° N
Centaur AC-64 2.2 13:46:15 10° WNW 13:50:54 53° N 13:50:54 53° N
RESURS DK-1 2.4 13:47:10 10° NNW 13:51:09 74° WSW 13:55:08 10° SSE
Meteor 2-5 Rocket 4.0 13:46:13 10° SSW 13:51:49 71° W 13:57:33 10° N
Hubble Space Telescope 2.3 13:49:13 10° WNW 13:52:17 22° NNW 13:52:31 21° N
Cosmos 1943 3.1 13:47:01 10° SSW 13:52:42 90° ESE 13:56:14 24° NNE
IUS-1 SRM-2 4.0 13:50:25 10° WNW 13:54:19 68° SSW 14:12:03 10° ESE
Helios 1A 4.2 14:03:04 28° SSE 14:03:04 28° SSE 14:05:08 10° S
ASC 2 Rocket 3.6 13:56:48 10° W 14:01:58 45° NNW 14:02:21 44° N
Resurs 1-3 3.8 14:00:35 10° S 14:04:51 68° WSW 14:09:08 10° NNW
Intelsat 5-1 Rocket 3.7 13:46:30 10° WNW 14:05:45 68° N 14:08:23 45° ENE
ACS3 Solar Sail 3.5 14:10:41 10° SSW 14:16:18 34° W 14:22:01 10° NW
Cosmos 1603 3.8 14:28:08 10° SSW 14:33:28 69° W 14:33:28 69° W
SL-08 ROCKET BODY 4.4 14:27:58 10° S 14:33:59 80° W 14:34:01 80° W
Atlas Centaur 2 4.5 22:22:37 23° S 22:22:37 23° S 22:26:28 10° SSE
CZ-3 R/B 3.6 21:46:03 10° SW 22:20:36 66° SSE 22:29:11 10° ENE
Cosmos 2237 Rocket 3.7 22:29:03 31° ESE 22:29:03 31° ESE 22:32:13 10° SE
ATLAS 5 CENTAUR R/B 2.9 22:46:10 58° SSE 22:46:10 58° SSE 22:51:44 10° SSE
CZ-4C R/B 3.4 22:53:47 58° SW 22:53:47 58° SW 23:02:08 10° S
GPS 2-12 Rocket1 4.4 23:05:34 32° ENE 23:05:34 32° ENE 23:08:07 10° ENE
Delta 142 4.4 23:05:09 49° SE 23:05:09 49° SE 23:08:58 10° ENE
Milstar 3 3.3 23:04:58 56° WNW 23:06:33 65° NNW 23:19:25 10° ENE
Cosmos 371 Rocket 3.9 23:03:53 10° S 23:08:34 55° ESE 23:13:17 10° NNE
CCE 1 Rocket 4.5 23:08:48 54° SSW 23:09:46 64° SSE 23:17:55 10° ENE
BREEZE-M DEB (TANK) 3.9 22:56:37 10° SW 23:10:30 84° SE 23:14:01 10° NE
OAO 2 Rocket 4.3 23:14:53 34° NNE 23:14:53 34° NNE 23:17:54 10° NE
SL-16 R/B 3.9 23:11:15 10° N 23:16:11 30° ENE 23:21:06 10° SE
Cosmos 1980 4.4 23:18:09 38° SSW 23:18:09 38° SSW 23:21:59 10° S
Blok-L 4.4 23:18:55 54° E 23:18:55 54° E 23:24:20 10° NNE
Meteor 1-23 Rocket 4.1 23:22:23 62° W 23:22:23 62° W 23:27:57 10° S
IRAS Rocket 4.0 23:17:28 10° N 23:23:00 72° WNW 23:28:27 10° SSW
SWIFT 2.7 23:26:19 50° ENE 23:26:19 50° ENE 23:29:15 10° E
Cosmos 1844 Rocket 3.3 23:20:58 10° S 23:26:28 56° ESE 23:31:56 10° NNE
Okean 3 4.4 23:27:53 14° NNE 23:31:16 45° E 23:35:12 10° SSE
Cosmos 2227 4.0 23:25:55 10° SSW 23:31:33 77° WNW 23:37:13 10° NNE
Cosmos 1300 3.2 23:34:35 10° S 23:37:49 50° E 23:41:02 10° NNE
Delta 128 3.6 23:39:23 51° NW 23:40:23 72° NNE 23:45:13 10° ESE
Cosmos 1470 Rocket 3.5 23:37:29 10° S 23:41:56 89° E 23:46:22 10° N
SL-4 R/B 2.5 23:43:29 11° SSW 23:46:26 44° SE 23:49:31 10° NE
ASTEX 1 3.7 23:42:15 10° NNE 23:47:08 67° E 23:52:02 10° S
Cosmos 1867 4.5 23:44:48 10° N 23:50:01 47° ENE 23:55:11 10° SE
ADEOS Rocket 3.4 23:44:50 10° NNE 23:51:21 78° ESE 23:58:36 10° S
Cosmos 1862 Rocket 3.7 23:49:03 10° N 23:53:29 76° E 23:57:53 10° S
Centaur D AC-25 2.6 23:51:15 27° NW 23:53:52 60° NNE 23:57:27 10° E
Delta 168 3.7 23:55:10 22° N 23:55:34 23° N 23:58:14 10° ENE
